Flight Track Log - Related Links

Times and Time Zones

All times are in EDT time to prevent confusion due to time zone crossing. See the VET430 flight status page for this flight to view local times or setup timezone preferences in your user account.

Time Position Orientation Groundspeed Altitude Reporting Facility
EDT Latitude Longitude Course Direction KTS MPH feet Rate Location/Type
Tue 01:55:02 PM 41.0667 -73.7667 311° West 194 223 4,400  Level New TRACON
Tue 01:56:02 PM 41.0500 -73.8333 252° West 222 255 6,800 2,250 Climbing New TRACON
Tue 01:57:02 PM 41.0167 -73.9167 242° Southwest 274 315 8,900 2,300 Climbing New TRACON
Tue 01:58:02 PM 40.9833 -74.0167 246° West 294 338 11,400 2,400 Climbing New TRACON
Tue 01:59:00 PM 40.6894 -74.3058 224° Southwest  Level Estimated
Tue 01:59:02 PM 40.9333 -74.1000 232° Southwest 305 351 13,700  Level New TRACON
Tue 02:00:02 PM 40.8333 -74.1167 187° South 350 403 15,000 650 Climbing New TRACON
Tue 02:01:02 PM 40.7667 -74.1833 217° Southwest 312 359 15,000 100 Level New TRACON
Tue 02:02:02 PM 40.7667 -74.2833 270° West 308 354 15,200 653 Climbing New TRACON
Tue 02:04:15 PM 40.7836 -74.5119 276° West 301 346 17,100 560 Climbing New Center
Tue 02:05:15 PM 40.7183 -74.5986 225° Southwest 290 334 17,000 -50 Descending New Center
Tue 02:06:15 PM 40.6444 -74.6931 224° Southwest 328 377 17,000 650 Level New Center
Tue 02:07:15 PM 40.5811 -74.7742 224° Southwest 354 407 18,300 1,450 Climbing New Center
Tue 02:08:15 PM 40.5094 -74.8656 224° Southwest 359 413 19,900 1,550 Climbing New Center
Tue 02:09:15 PM 40.4375 -74.9511 222° Southwest 359 413 21,400 1,500 Climbing New Center
Tue 02:10:15 PM 40.3675 -75.0478 226° Southwest 359 413 22,900 1,500 Climbing New Center
Tue 02:11:15 PM 40.2992 -75.1469 228° Southwest 370 426 24,400 1,450 Climbing New Center
Tue 02:12:15 PM 40.2286 -75.2458 227° Southwest 370 426 25,800 1,400 Climbing New Center
Tue 02:13:15 PM 40.1606 -75.3419 227° Southwest 370 426 27,200 1,400 Climbing New Center
Tue 02:14:15 PM 40.0900 -75.4406 227° Southwest 370 426 28,600 1,350 Climbing New Center
Tue 02:15:15 PM 40.0194 -75.5333 225° Southwest 370 426 29,900 1,350 Climbing New Center
Tue 02:16:15 PM 39.9508 -75.6289 227° Southwest 370 426 31,300 1,300 Climbing New Center
Tue 02:17:15 PM 39.8819 -75.7322 229° Southwest 376 433 32,500 1,200 Climbing New Center
Tue 02:18:15 PM 39.8194 -75.8333 231° Southwest 376 433 33,700 1,300 Climbing New Center
Tue 02:19:15 PM 39.7586 -75.9369 233° Southwest 371 427 35,100 1,600 Climbing New Center
Tue 02:20:15 PM 39.6917 -76.0344 228° Southwest 365 420 36,900 1,850 Climbing New Center
Tue 02:21:15 PM 39.6353 -76.1300 233° Southwest 359 413 38,800 1,148 Climbing New Center
Tue 02:22:57 PM 39.5239 -76.3017 230° Southwest 359 413 40,000 442 Climbing Washington Center
Tue 02:23:58 PM 39.4547 -76.4033 229° Southwest 370 426 40,000  Level Washington Center
Tue 02:24:56 PM 39.3831 -76.5178 231° Southwest 392 451 40,000  Level Washington Center
Tue 02:25:57 PM 39.3069 -76.6269 228° Southwest 406 467 40,000  Level Washington Center
Tue 02:26:56 PM 39.2331 -76.7464 231° Southwest 419 482 40,000  Level Washington Center
Tue 02:27:56 PM 39.1589 -76.8631 231° Southwest 425 489 40,000  Level Washington Center
Tue 02:28:57 PM 39.0847 -76.9767 230° Southwest 425 489 40,000  Level Washington Center
Tue 02:29:57 PM 39.0022 -77.0847 226° Southwest 425 489 40,000  Level Washington Center
Tue 02:30:58 PM 38.9217 -77.1711 220° Southwest 419 482 40,000  Level Washington Center
Tue 02:31:56 PM 38.8308 -77.2678 220° Southwest 424 488 40,000  Level Washington Center
Tue 02:32:57 PM 38.7397 -77.3669 220° Southwest 429 494 40,000  Level Washington Center
Tue 02:33:58 PM 38.6486 -77.4658 220° Southwest 429 494 40,000  Level Washington Center
Tue 02:34:56 PM 38.5594 -77.5644 221° Southwest 440 506 40,000  Level Washington Center
Tue 02:35:57 PM 38.4681 -77.6653 221° Southwest 440 506 40,000  Level Washington Center
Tue 02:36:58 PM 38.3789 -77.7608 220° Southwest 435 501 40,000  Level Washington Center
Tue 02:37:57 PM 38.2875 -77.8586 220° Southwest 435 501 40,000  Level Washington Center
Tue 02:38:57 PM 38.2000 -77.9564 221° Southwest 435 501 40,000  Level Washington Center
Tue 02:39:56 PM 38.1064 -78.0539 219° Southwest 435 501 40,000  Level Washington Center
Tue 02:40:56 PM 38.0189 -78.1511 221° Southwest 435 501 40,000  Level Washington Center
Tue 02:41:57 PM 37.9433 -78.2617 229° Southwest 425 489 40,000  Level Washington Center
Tue 02:42:58 PM 37.8531 -78.3822 227° Southwest 425 489 40,000  Level Washington Center
Tue 02:43:56 PM 37.7731 -78.5000 229° Southwest 435 501 40,000  Level Washington Center
Tue 02:44:57 PM 37.6950 -78.6153 229° Southwest 435 501 40,000  Level Washington Center
Tue 02:45:56 PM 37.6150 -78.7275 228° Southwest 435 501 40,000  Level Washington Center
Tue 02:46:57 PM 37.5414 -78.8317 228° Southwest 435 501 40,000 -397 Level Washington Center
Tue 02:47:57 PM 37.4525 -78.9536 227° Southwest 435 501 39,200 -787 Descending Washington Center
Tue 02:48:59 PM 37.3764 -79.0600 228° Southwest 445 512 38,400 -857 Descending Washington Center
Tue 02:49:56 PM 37.2981 -79.1714 229° Southwest 445 512 37,500 -966 Descending Washington Center
Tue 02:50:57 PM 37.2153 -79.2900 229° Southwest 450 518 36,500 -992 Descending Washington Center
Tue 02:51:57 PM 37.1386 -79.4036 230° Southwest 450 518 35,500 -950 Descending Washington Center
Tue 02:52:57 PM 37.0617 -79.5222 231° Southwest 440 506 34,600 -942 Descending Washington Center
Tue 02:53:58 PM 36.9828 -79.6350 229° Southwest 440 506 33,600 -1,041 Descending Washington Center
Tue 02:54:58 PM 36.8992 -79.7606 230° Southwest 440 506 32,500 -905 Descending Washington Center
Tue 02:56:57 PM 36.7542 -79.9686 229° Southwest 444 511 30,900 -1,140 Descending Atlanta Center
Tue 02:57:57 PM 36.6664 -80.0972 230° Southwest 444 511 29,100 -1,450 Descending Atlanta Center
Tue 02:58:57 PM 36.5867 -80.2122 229° Southwest 444 511 28,000 -700 Descending Atlanta Center
Tue 02:59:57 PM 36.4933 -80.2942 215° Southwest 438 504 27,700 -650 Descending Atlanta Center
Tue 03:00:57 PM 36.3633 -80.3389 195° South 418 481 26,700 -950 Descending Atlanta Center
Tue 03:01:57 PM 36.2500 -80.3803 196° South 434 499 25,800 -950 Descending Atlanta Center
Tue 03:02:57 PM 36.1383 -80.4214 197° South 429 494 24,800 -1,200 Descending Atlanta Center
Tue 03:03:57 PM 36.0289 -80.4569 195° South 423 487 23,400 -1,500 Descending Atlanta Center
Tue 03:04:57 PM 35.9194 -80.4953 196° South 416 479 21,800 -1,700 Descending Atlanta Center
Tue 03:05:57 PM 35.8100 -80.5306 195° South 409 471 20,000 -1,800 Descending Atlanta Center
Tue 03:06:57 PM 35.7244 -80.6058 216° Southwest 384 442 18,200 -1,000 Descending Atlanta Center
Tue 03:07:57 PM 35.6692 -80.7156 238° Southwest 372 428 18,000 -100 Descending Atlanta Center
Tue 03:08:57 PM 35.6136 -80.8225 237° Southwest 377 434 18,000  Level Atlanta Center
Tue 03:09:57 PM 35.5617 -80.9192 237° Southwest 377 434 18,000 -100 Level Atlanta Center
Tue 03:10:57 PM 35.5061 -81.0258 237° Southwest 377 434 17,800 -366 Descending Atlanta Center
Tue 03:11:19 PM 35.4822 -81.0753 239° Southwest 371 427 17,500 -1,200 Descending Atlanta Center
Tue 03:11:57 PM 35.4522 -81.1322 237° Southwest 377 434 16,600 -1,582 Descending Atlanta Center
Tue 03:12:50 PM 35.3983 -81.2361 238° Southwest 359 413 15,100 -1,500 Descending Atlanta Center
Tue 03:12:57 PM 35.3944 -81.2464 245° Southwest 377 434 15,100 -1,161 Level Atlanta Center
Tue 03:13:52 PM 35.3483 -81.3347 237° Southwest 342 394 13,900 -1,300 Descending Atlanta Center
Tue 03:13:57 PM 35.3403 -81.3475 232° Southwest 366 421 13,800 -1,377 Descending Atlanta Center
Tue 03:14:53 PM 35.2964 -81.4356 239° Southwest 341 392 12,500 -1,400 Descending Atlanta Center
Tue 03:14:57 PM 35.2903 -81.4433 226° Southwest 355 409 12,400 -1,875 Descending Atlanta Center
Tue 03:15:57 PM 35.2381 -81.5442 238° Southwest 349 402 10,500 -1,200 Descending Atlanta Center
Tue 03:16:57 PM 35.1900 -81.6397 238° Southwest 348 400 10,000 -300 Descending Atlanta Center
Tue 03:17:57 PM 35.1375 -81.7353 236° Southwest 348 400 9,900 -300 Descending Atlanta Center
Tue 03:18:57 PM 35.0953 -81.8228 239° Southwest 348 400 9,400 -800 Descending Atlanta Center
Tue 03:19:57 PM 35.0553 -81.9175 243° Southwest 331 381 8,300 -1,050 Descending Atlanta Center
Tue 03:20:57 PM 35.0169 -82.0022 241° Southwest 309 356 7,300 -1,150 Descending Atlanta Center
Tue 03:21:57 PM 34.9892 -82.0789 246° West 273 314 6,000 -1,350 Descending Atlanta Center
Tue 03:22:57 PM 34.9569 -82.1608 244° Southwest 260 299 4,600 -1,250 Descending Atlanta Center
Tue 03:23:57 PM 34.9394 -82.2422 255° West 252 290 3,500 -750 Descending Atlanta Center
Tue 03:24:57 PM 34.9217 -82.3111 253° West 240 276 3,100 7,250 Descending Atlanta Center
Tue 03:25:57 PM 34.9017 -82.3875 252° West 240 276 18,000 14,900 Climbing Atlanta Center
Tue 03:27:00 PM 34.8479 -82.3500 248° West  Level Estimated
Tue 03:34:00 PM 34.8479 -82.3500 248° West  Level Estimated
Tue 03:35:00 PM 34.8479 -82.3500 248° West  Level Estimated

Login

Don't have an account? Register now (free) for customized features, flight alerts, and more!